Location: NJAA Observatory
(40.6819°N, 74.8979°W)
Time: 16:47:18
(UTC-04:00)

Landsat 5 - Visible Passes

Search period start: 26 April 2018 00:00
Search period end: 06 May 2018 00:00
Orbit: 530 x 655 km, 98.1° (Epoch: 25 April)

Date Brightness Start Highest point End Pass type
(mag) Time Alt. Az. Time Alt. Az. Time Alt. Az.
26 Apr 6.5 00:47:38 11° NE 00:47:38 11° NE 00:48:10 10° NE visible
26 Apr 5.6 02:24:13 24° NNW 02:24:13 24° NNW 02:26:01 10° NNW visible
27 Apr 6.4 00:56:26 13° NE 00:56:26 13° NE 00:57:40 10° NNE visible
27 Apr 5.6 02:33:01 23° NNW 02:33:01 23° NNW 02:34:47 10° NNW visible
28 Apr 6.2 01:05:15 16° NE 01:05:15 16° NE 01:06:55 10° NNE visible
28 Apr 5.6 02:41:50 22° NNW 02:41:50 22° NNW 02:43:31 10° NNW visible
29 Apr 6.1 01:14:04 18° NE 01:14:04 18° NE 01:16:03 10° NNE visible
29 Apr 5.7 02:50:39 20° NW 02:50:39 20° NW 02:52:12 10° NNW visible
30 Apr 5.9 01:22:52 21° NE 01:22:52 21° NE 01:25:06 10° NNE visible
30 Apr 5.7 02:59:28 18° NW 02:59:28 18° NW 03:00:50 10° NNW visible
01 May 5.7 01:31:42 24° NE 01:31:42 24° NE 01:34:06 10° N visible
01 May 5.8 03:08:17 16° NW 03:08:17 16° NW 03:09:26 10° NW visible
02 May 5.5 01:40:31 28° NNE 01:40:31 28° NNE 01:43:03 10° N visible
02 May 5.9 03:17:06 14° NW 03:17:06 14° NW 03:17:56 10° NW visible
03 May 5.3 01:49:20 31° NNE 01:49:20 31° NNE 01:51:58 10° N visible
03 May 6.0 03:25:55 12° WNW 03:25:55 12° WNW 03:26:21 10° NW visible
04 May 5.1 01:58:09 34° NNE 01:58:09 34° NNE 02:00:50 10° N visible
05 May 5.0 02:06:58 37° N 02:06:58 37° N 02:09:41 10° N visible
